Time,TemperatureF,DewpointF,PressureIn,WindDirection,WindDirectionDegrees,WindSpeedMPH,WindSpeedGustMPH,Humidity,HourlyPrecipIn,Conditions,Clouds,dailyrainin,SoftwareType,DateUTC
2013-05-18 00:00:00,61.7,50.1,30.15,SSW,211,12.5,29.1,66,0.00,,,0.00,VWS V14.01,2013-05-18 04:00:00,
2013-05-18 00:01:00,63.7,49.1,30.15,ENE,63,0.0,0.0,59,0.00,,,0.01,VWS V14.01,2013-05-18 04:01:00,
2013-05-18 00:02:00,63.6,49.0,30.15,ENE,63,0.0,0.0,59,0.00,,,0.01,VWS V14.01,2013-05-18 04:02:00,
2013-05-18 00:03:00,63.7,49.2,30.15,ENE,63,0.0,0.0,59,0.00,,,0.01,VWS V14.01,2013-05-18 04:03:00,
2013-05-18 00:04:00,61.4,50.2,30.15,North,359,9.9,29.1,66,0.00,,,0.00,VWS V14.01,2013-05-18 04:04:00,
2013-05-18 00:05:00,61.6,50.4,30.15,SW,214,16.0,29.1,67,0.00,,,0.00,VWS V14.01,2013-05-18 04:05:00,
2013-05-18 00:06:00,61.3,50.1,30.15,SW,236,28.5,29.1,67,0.00,,,0.00,VWS V14.01,2013-05-18 04:06:00,
2013-05-18 00:07:00,61.3,50.2,30.15,North,359,8.0,29.1,67,0.00,,,0.00,VWS V14.01,2013-05-18 04:07:00,
2013-05-18 00:08:00,63.7,49.0,30.15,WSW,240,3.0,26.7,59,0.00,,,0.01,VWS V14.01,2013-05-18 04:08:00,
2013-05-18 00:09:00,61.3,50.3,30.15,North,359,19.6,29.1,67,0.00,,,0.00,VWS V14.01,2013-05-18 04:09:00,
2013-05-18 00:10:00,61.2,50.2,30.15,North,359,27.2,29.1,67,0.00,,,0.00,VWS V14.01,2013-05-18 04:10:00,
2013-05-18 00:11:00,61.3,50.5,30.15,SW,214,1.9,29.1,68,0.00,,,0.00,VWS V14.01,2013-05-18 04:11:00,
2013-05-18 00:12:00,61.3,50.5,30.15,North,359,25.0,29.1,68,0.00,,,0.00,VWS V14.01,2013-05-18 04:12:00,
2013-05-18 00:13:00,63.6,49.1,30.15,SSW,202,8.2,27.6,59,0.00,,,0.01,VWS V14.01,2013-05-18 04:13:00,
2013-05-18 00:14:00,61.0,50.3,30.15,SW,218,10.8,29.1,68,0.00,,,0.00,VWS V14.01,2013-05-18 04:14:00,
2013-05-18 00:15:00,61.1,50.5,30.15,North,359,9.5,29.3,68,0.00,,,0.00,VWS V14.01,2013-05-18 04:15:00,
2013-05-18 00:16:00,61.0,50.5,30.15,South,179,5.8,29.3,68,0.00,,,0.00,VWS V14.01,2013-05-18 04:16:00,
2013-05-18 00:17:00,61.0,50.5,30.15,North,359,0.0,29.3,68,0.00,,,0.00,VWS V14.01,2013-05-18 04:17:00,
2013-05-18 00:18:00,63.4,49.2,30.15,SW,236,7.8,27.6,60,0.00,,,0.01,VWS V14.01,2013-05-18 04:18:00,
2013-05-18 00:19:00,60.9,50.4,30.15,SW,214,0.0,29.3,68,0.00,,,0.00,VWS V14.01,2013-05-18 04:19:00,
2013-05-18 00:20:00,60.9,50.5,30.15,North,359,6.9,29.3,68,0.00,,,0.00,VWS V14.01,2013-05-18 04:20:00,
2013-05-18 00:21:00,60.8,50.5,30.15,North,359,11.9,29.3,69,0.00,,,0.00,VWS V14.01,2013-05-18 04:21:00,
2013-05-18 00:22:00,60.9,50.6,30.15,SW,222,11.7,29.3,69,0.00,,,0.00,VWS V14.01,2013-05-18 04:22:00,
2013-05-18 00:23:00,63.3,49.4,30.16,SSW,207,4.7,29.1,60,0.00,,,0.01,VWS V14.01,2013-05-18 04:23:00,
2013-05-18 00:24:00,60.8,50.6,30.14,North,359,22.7,29.3,69,0.00,,,0.00,VWS V14.01,2013-05-18 04:24:00,
2013-05-18 00:25:00,60.7,50.6,30.15,SSW,210,23.3,29.3,69,0.00,,,0.00,VWS V14.01,2013-05-18 04:25:00,
2013-05-18 00:26:00,60.7,50.6,30.15,North,359,4.7,29.3,69,0.00,,,0.00,VWS V14.01,2013-05-18 04:26:00,
2013-05-18 00:27:00,60.8,50.8,30.15,SW,218,9.7,29.3,70,0.00,,,0.00,VWS V14.01,2013-05-18 04:27:00,
2013-05-18 00:28:00,63.0,49.4,30.16,North,359,23.3,29.1,61,0.00,,,0.01,VWS V14.01,2013-05-18 04:28:00,
2013-05-18 00:29:00,60.7,50.7,30.15,SW,217,5.8,29.3,70,0.00,,,0.00,VWS V14.01,2013-05-18 04:29:00,
2013-05-18 00:30:00,60.6,50.6,30.15,SW,235,2.8,29.3,70,0.00,,,0.00,VWS V14.01,2013-05-18 04:30:00,
2013-05-18 00:31:00,60.7,50.8,30.15,North,359,11.0,29.5,70,0.00,,,0.00,VWS V14.01,2013-05-18 04:31:00,
2013-05-18 00:32:00,60.8,51.0,30.15,North,359,25.4,29.5,70,0.00,,,0.00,VWS V14.01,2013-05-18 04:32:00,
2013-05-18 00:33:00,62.7,49.3,30.16,North,359,26.7,29.1,62,0.00,,,0.01,VWS V14.01,2013-05-18 04:33:00,
2013-05-18 00:34:00,60.5,50.7,30.15,SW,228,12.1,29.5,70,0.00,,,0.00,VWS V14.01,2013-05-18 04:34:00,
2013-05-18 00:35:00,60.6,50.8,30.15,SW,215,0.0,29.5,70,0.00,,,0.00,VWS V14.01,2013-05-18 04:35:00,
2013-05-18 00:36:00,60.5,50.7,30.15,SW,232,11.4,29.5,70,0.00,,,0.00,VWS V14.01,2013-05-18 04:36:00,
2013-05-18 00:37:00,60.6,50.8,30.14,North,359,23.3,29.5,70,0.00,,,0.00,VWS V14.01,2013-05-18 04:37:00,
2013-05-18 00:38:00,62.5,49.5,30.16,SW,219,11.4,29.1,62,0.00,,,0.01,VWS V14.01,2013-05-18 04:38:00,
2013-05-18 00:39:00,60.5,50.8,30.14,North,359,4.7,29.5,70,0.00,,,0.00,VWS V14.01,2013-05-18 04:39:00,
2013-05-18 00:40:00,60.5,50.8,30.15,SSW,202,18.1,29.5,70,0.00,,,0.00,VWS V14.01,2013-05-18 04:40:00,
2013-05-18 00:41:00,60.5,51.0,30.15,North,359,25.5,29.5,71,0.00,,,0.00,VWS V14.01,2013-05-18 04:41:00,
2013-05-18 00:42:00,60.5,50.8,30.14,North,359,29.3,29.5,70,0.00,,,0.00,VWS V14.01,2013-05-18 04:42:00,
2013-05-18 00:43:00,62.2,49.8,30.16,SW,235,6.2,29.1,64,0.00,,,0.01,VWS V14.01,2013-05-18 04:43:00,
2013-05-18 00:44:00,60.3,50.6,30.15,North,359,25.2,29.5,70,0.00,,,0.00,VWS V14.01,2013-05-18 04:44:00,
2013-05-18 00:45:00,60.4,50.7,30.15,North,359,2.1,29.5,70,0.00,,,0.00,VWS V14.01,2013-05-18 04:45:00,
2013-05-18 00:46:00,60.3,50.6,30.15,North,359,9.3,29.5,70,0.00,,,0.00,VWS V14.01,2013-05-18 04:46:00,
2013-05-18 00:47:00,60.3,50.7,30.15,SSW,208,3.5,29.5,70,0.00,,,0.00,VWS V14.01,2013-05-18 04:47:00,
2013-05-18 00:48:00,61.9,49.8,30.16,SSW,202,24.4,29.1,65,0.00,,,0.01,VWS V14.01,2013-05-18 04:48:00,
2013-05-18 00:49:00,60.4,50.8,30.14,North,359,0.0,29.5,71,0.00,,,0.00,VWS V14.01,2013-05-18 04:49:00,
2013-05-18 00:51:00,60.3,50.7,30.14,North,359,0.0,29.5,70,0.00,,,0.00,VWS V14.01,2013-05-18 04:51:00,
2013-05-18 00:53:00,61.7,50.1,30.15,SW,231,11.6,29.1,66,0.00,,,0.01,VWS V14.01,2013-05-18 04:53:00,
2013-05-18 00:54:00,60.3,50.7,30.14,North,359,5.2,29.5,71,0.00,,,0.00,VWS V14.01,2013-05-18 04:54:00,
2013-05-18 00:57:00,60.3,50.7,30.14,SSW,200,0.0,29.5,71,0.00,,,0.00,VWS V14.01,2013-05-18 04:57:00,
2013-05-18 01:01:00,60.2,50.7,30.14,SSW,208,0.0,21.4,71,0.00,,,0.00,VWS V14.01,2013-05-18 05:01:00,
2013-05-18 01:02:00,60.0,50.5,30.14,North,359,0.0,27.6,71,0.00,,,0.00,VWS V14.01,2013-05-18 05:02:00,
2013-05-18 01:05:00,59.9,50.4,30.14,North,359,0.0,27.6,71,0.00,,,0.00,VWS V14.01,2013-05-18 05:05:00,
2013-05-18 01:07:00,59.9,50.5,30.14,North,359,0.0,27.8,71,0.00,,,0.00,VWS V14.01,2013-05-18 05:07:00,
2013-05-18 01:35:00,60.5,50.8,30.15,North,359,14.7,29.5,70,0.00,,,0.00,VWS V14.01,2013-05-18 05:35:00,
2013-05-18 01:40:00,60.2,50.6,30.15,SW,231,23.3,29.5,70,0.00,,,0.00,VWS V14.01,2013-05-18 05:40:00,
2013-05-18 01:45:00,60.2,50.6,30.14,SW,215,22.6,29.5,70,0.00,,,0.00,VWS V14.01,2013-05-18 05:45:00,
2013-05-18 01:50:00,60.2,50.6,30.14,SSW,200,0.0,29.5,71,0.00,,,0.00,VWS V14.01,2013-05-18 05:50:00,
2013-05-18 01:56:00,60.1,50.6,30.14,North,359,3.0,27.6,71,0.00,,,0.00,VWS V14.01,2013-05-18 05:56:00,
2013-05-18 02:01:00,60.0,50.5,30.14,North,359,0.0,27.6,71,0.00,,,0.00,VWS V14.01,2013-05-18 06:01:00,
2013-05-18 02:06:00,59.9,50.5,30.14,North,359,25.2,29.5,71,0.00,,,0.00,VWS V14.01,2013-05-18 06:06:00,
2013-05-18 02:11:00,59.6,50.1,30.15,SW,215,15.1,29.5,71,0.00,,,0.00,VWS V14.01,2013-05-18 06:11:00,
2013-05-18 02:16:00,59.5,50.0,30.14,South,187,8.2,29.5,71,0.00,,,0.00,VWS V14.01,2013-05-18 06:16:00,
2013-05-18 02:21:00,59.3,49.9,30.14,North,359,0.7,29.5,71,0.00,,,0.00,VWS V14.01,2013-05-18 06:21:00,
2013-05-18 02:26:00,59.2,49.8,30.15,North,359,20.1,29.5,71,0.00,,,0.00,VWS V14.01,2013-05-18 06:26:00,
2013-05-18 02:31:00,59.1,49.6,30.15,SW,235,0.0,29.5,71,0.00,,,0.00,VWS V14.01,2013-05-18 06:31:00,
2013-05-18 02:36:00,58.9,49.4,30.15,North,359,0.0,29.5,71,0.00,,,0.00,VWS V14.01,2013-05-18 06:36:00,
2013-05-18 02:41:00,58.9,49.3,30.15,North,359,24.2,29.5,70,0.00,,,0.00,VWS V14.01,2013-05-18 06:41:00,
2013-05-18 02:46:00,58.8,49.2,30.15,North,359,11.0,29.5,70,0.00,,,0.00,VWS V14.01,2013-05-18 06:46:00,
2013-05-18 02:51:00,58.7,49.1,30.15,North,359,29.3,29.5,70,0.00,,,0.00,VWS V14.01,2013-05-18 06:51:00,
2013-05-18 02:56:00,58.5,48.8,30.15,North,359,29.1,29.1,70,0.00,,,0.00,VWS V14.01,2013-05-18 06:56:00,
2013-05-18 03:01:00,58.4,48.7,30.15,North,359,12.5,29.1,70,0.00,,,0.00,VWS V14.01,2013-05-18 07:01:00,
2013-05-18 03:07:00,58.4,48.8,30.15,North,359,0.0,29.1,70,0.00,,,0.00,VWS V14.01,2013-05-18 07:07:00,
2013-05-18 03:12:00,58.1,48.5,30.15,North,359,0.0,29.1,70,0.00,,,0.00,VWS V14.01,2013-05-18 07:12:00,
2013-05-18 03:17:00,58.1,48.5,30.15,North,359,0.0,29.1,70,0.00,,,0.00,VWS V14.01,2013-05-18 07:17:00,
2013-05-18 03:22:00,57.8,48.3,30.15,North,359,1.9,29.5,71,0.00,,,0.00,VWS V14.01,2013-05-18 07:22:00,
2013-05-18 03:27:00,57.8,48.3,30.15,North,359,0.0,29.5,71,0.00,,,0.00,VWS V14.01,2013-05-18 07:27:00,
2013-05-18 03:32:00,57.7,48.2,30.15,SSW,211,0.0,29.5,70,0.00,,,0.00,VWS V14.01,2013-05-18 07:32:00,
2013-05-18 03:37:00,57.6,48.2,30.15,North,359,0.0,29.5,71,0.00,,,0.00,VWS V14.01,2013-05-18 07:37:00,
2013-05-18 03:42:00,57.4,48.0,30.15,North,359,0.0,29.5,71,0.00,,,0.00,VWS V14.01,2013-05-18 07:42:00,
2013-05-18 03:47:00,57.4,48.0,30.15,SSW,205,0.0,29.5,71,0.00,,,0.00,VWS V14.01,2013-05-18 07:47:00,
2013-05-18 03:52:00,57.3,48.0,30.15,North,359,5.0,29.5,71,0.00,,,0.00,VWS V14.01,2013-05-18 07:52:00,
2013-05-18 03:57:00,57.0,47.7,30.15,North,359,0.0,27.8,71,0.00,,,0.00,VWS V14.01,2013-05-18 07:57:00,
2013-05-18 04:02:00,57.0,47.5,30.15,North,359,0.0,28.3,71,0.00,,,0.00,VWS V14.01,2013-05-18 08:02:00,
2013-05-18 04:07:00,56.8,47.3,30.15,North,359,0.0,28.3,70,0.00,,,0.00,VWS V14.01,2013-05-18 08:07:00,
2013-05-18 04:12:00,56.8,47.1,30.15,North,359,0.0,28.7,70,0.00,,,0.00,VWS V14.01,2013-05-18 08:12:00,
2013-05-18 04:17:00,56.8,47.1,30.15,North,359,0.0,29.1,70,0.00,,,0.00,VWS V14.01,2013-05-18 08:17:00,
2013-05-18 04:22:00,56.7,47.0,30.15,North,359,0.0,29.1,70,0.00,,,0.00,VWS V14.01,2013-05-18 08:22:00,
2013-05-18 04:27:00,56.6,46.9,30.15,North,359,0.0,29.1,70,0.00,,,0.00,VWS V14.01,2013-05-18 08:27:00,
2013-05-18 04:32:00,56.4,46.6,30.15,SW,221,13.4,29.1,70,0.00,,,0.00,VWS V14.01,2013-05-18 08:32:00,
2013-05-18 04:37:00,56.4,46.6,30.15,SW,214,0.0,29.5,70,0.00,,,0.00,VWS V14.01,2013-05-18 08:37:00,
2013-05-18 04:42:00,56.3,46.5,30.15,North,359,0.0,29.5,70,0.00,,,0.00,VWS V14.01,2013-05-18 08:42:00,
2013-05-18 04:48:00,56.2,46.4,30.15,North,359,0.0,29.5,70,0.00,,,0.00,VWS V14.01,2013-05-18 08:48:00,
2013-05-18 04:53:00,56.1,46.2,30.15,North,359,0.0,29.5,69,0.00,,,0.00,VWS V14.01,2013-05-18 08:53:00,
2013-05-18 04:58:00,56.1,46.2,30.15,North,359,0.0,24.8,69,0.00,,,0.00,VWS V14.01,2013-05-18 08:58:00,
2013-05-18 05:03:00,55.9,46.0,30.15,North,359,0.0,29.3,69,0.00,,,0.00,VWS V14.01,2013-05-18 09:03:00,
2013-05-18 05:08:00,55.9,46.0,30.15,North,359,0.0,29.3,69,0.00,,,0.00,VWS V14.01,2013-05-18 09:08:00,
2013-05-18 05:13:00,55.8,45.8,30.15,SSW,208,19.6,29.3,69,0.00,,,0.00,VWS V14.01,2013-05-18 09:13:00,
2013-05-18 05:18:00,55.7,45.6,30.15,North,359,0.0,29.3,69,0.00,,,0.00,VWS V14.01,2013-05-18 09:18:00,
2013-05-18 05:23:00,55.7,45.7,30.15,North,359,0.0,29.3,69,0.00,,,0.00,VWS V14.01,2013-05-18 09:23:00,
2013-05-18 05:28:00,55.6,45.5,30.16,North,359,0.0,29.3,69,0.00,,,0.00,VWS V14.01,2013-05-18 09:28:00,
2013-05-18 05:33:00,55.4,45.2,30.16,North,359,0.0,29.3,68,0.00,,,0.00,VWS V14.01,2013-05-18 09:33:00,
2013-05-18 05:38:00,55.4,45.2,30.16,North,359,0.0,29.3,68,0.00,,,0.00,VWS V14.01,2013-05-18 09:38:00,
2013-05-18 05:43:00,55.3,45.1,30.16,North,359,23.5,29.3,68,0.00,,,0.00,VWS V14.01,2013-05-18 09:43:00,
2013-05-18 05:48:00,55.2,44.9,30.16,North,359,4.5,29.3,68,0.00,,,0.00,VWS V14.01,2013-05-18 09:48:00,
2013-05-18 05:53:00,55.2,44.9,30.16,SW,217,0.0,29.3,68,0.00,,,0.00,VWS V14.01,2013-05-18 09:53:00,
2013-05-18 05:58:00,55.1,44.9,30.16,SW,221,0.0,13.4,68,0.00,,,0.00,VWS V14.01,2013-05-18 09:58:00,
2013-05-18 06:03:00,55.0,44.9,30.16,North,359,0.0,26.5,69,0.00,,,0.00,VWS V14.01,2013-05-18 10:03:00,
2013-05-18 06:08:00,54.8,44.6,30.17,North,359,16.0,27.2,68,0.00,,,0.00,VWS V14.01,2013-05-18 10:08:00,
2013-05-18 06:13:00,54.8,44.5,30.17,North,359,0.0,29.3,68,0.00,,,0.00,VWS V14.01,2013-05-18 10:13:00,
2013-05-18 06:18:00,54.7,44.4,30.17,SW,214,0.0,29.3,68,0.00,,,0.00,VWS V14.01,2013-05-18 10:18:00,
2013-05-18 06:23:00,54.7,44.3,30.17,North,359,12.3,29.3,68,0.00,,,0.00,VWS V14.01,2013-05-18 10:23:00,
2013-05-18 06:28:00,54.6,44.2,30.17,North,359,0.0,29.3,68,0.00,,,0.00,VWS V14.01,2013-05-18 10:28:00,
2013-05-18 06:33:00,54.8,44.5,30.17,North,359,0.0,29.3,68,0.00,,,0.00,VWS V14.01,2013-05-18 10:33:00,
2013-05-18 06:38:00,54.8,44.5,30.17,SSW,194,0.0,29.3,68,0.00,,,0.00,VWS V14.01,2013-05-18 10:38:00,
2013-05-18 06:43:00,54.8,44.5,30.18,SW,219,6.7,29.3,68,0.00,,,0.00,VWS V14.01,2013-05-18 10:43:00,
2013-05-18 06:49:00,54.8,44.5,30.18,North,359,25.2,29.3,68,0.00,,,0.00,VWS V14.01,2013-05-18 10:49:00,
2013-05-18 06:54:00,54.8,44.5,30.18,SSW,204,11.0,29.3,68,0.00,,,0.00,VWS V14.01,2013-05-18 10:54:00,
2013-05-18 06:59:00,54.8,44.3,30.18,SW,224,0.0,28.5,68,0.00,,,0.00,VWS V14.01,2013-05-18 10:59:00,
2013-05-18 07:04:00,54.9,44.4,30.18,SW,215,26.3,28.7,68,0.00,,,0.00,VWS V14.01,2013-05-18 11:04:00,
2013-05-18 07:09:00,54.9,44.4,30.18,North,359,11.0,28.7,68,0.00,,,0.00,VWS V14.01,2013-05-18 11:09:00,
2013-05-18 07:14:00,55.0,44.3,30.18,SSW,194,14.7,28.7,67,0.00,,,0.00,VWS V14.01,2013-05-18 11:14:00,
2013-05-18 07:19:00,55.3,44.8,30.19,SSW,208,14.9,28.7,68,0.00,,,0.00,VWS V14.01,2013-05-18 11:19:00,
2013-05-18 07:24:00,55.4,44.5,30.19,WSW,239,12.3,28.7,67,0.00,,,0.00,VWS V14.01,2013-05-18 11:24:00,
2013-05-18 07:29:00,55.4,44.3,30.19,North,359,2.6,28.7,66,0.00,,,0.00,VWS V14.01,2013-05-18 11:29:00,
2013-05-18 07:34:00,55.4,44.3,30.19,North,359,4.1,29.5,66,0.00,,,0.00,VWS V14.01,2013-05-18 11:34:00,
2013-05-18 07:39:00,55.7,45.0,30.19,North,359,18.8,29.5,67,0.00,,,0.00,VWS V14.01,2013-05-18 11:39:00,
2013-05-18 07:44:00,55.7,44.7,30.18,SW,218,0.0,29.5,66,0.00,,,0.00,VWS V14.01,2013-05-18 11:44:00,
2013-05-18 07:49:00,55.9,45.0,30.19,SW,225,5.8,29.5,67,0.00,,,0.00,VWS V14.01,2013-05-18 11:49:00,
2013-05-18 07:54:00,56.1,45.2,30.19,SSW,211,5.2,23.7,67,0.00,,,0.00,VWS V14.01,2013-05-18 11:54:00,
2013-05-18 07:59:00,56.1,44.8,30.19,South,183,14.0,26.1,66,0.00,,,0.00,VWS V14.01,2013-05-18 11:59:00,
2013-05-18 08:04:00,56.3,45.1,30.19,North,359,27.0,29.1,66,0.00,,,0.00,VWS V14.01,2013-05-18 12:04:00,
2013-05-18 08:09:00,56.5,45.5,30.19,SSW,210,0.0,29.1,66,0.00,,,0.00,VWS V14.01,2013-05-18 12:09:00,
2013-05-18 08:14:00,56.8,45.3,30.19,North,359,0.0,29.1,65,0.00,,,0.00,VWS V14.01,2013-05-18 12:14:00,
2013-05-18 08:19:00,57.0,45.6,30.19,North,359,0.0,29.1,66,0.00,,,0.00,VWS V14.01,2013-05-18 12:19:00,
2013-05-18 08:24:00,57.2,45.5,30.19,SW,226,24.8,29.1,65,0.00,,,0.00,VWS V14.01,2013-05-18 12:24:00,
2013-05-18 08:29:00,57.4,45.8,30.19,WNW,284,0.0,29.3,65,0.00,,,0.00,VWS V14.01,2013-05-18 12:29:00,
2013-05-18 08:34:00,57.4,45.7,30.19,SSW,210,0.0,29.3,65,0.00,,,0.00,VWS V14.01,2013-05-18 12:34:00,
2013-05-18 08:39:00,57.7,46.2,30.19,West,263,0.0,29.3,65,0.00,,,0.00,VWS V14.01,2013-05-18 12:39:00,
2013-05-18 08:44:00,57.8,46.5,30.19,West,280,3.7,29.3,66,0.00,,,0.00,VWS V14.01,2013-05-18 12:44:00,
2013-05-18 08:49:00,58.2,46.7,30.19,West,278,8.4,29.3,65,0.00,,,0.00,VWS V14.01,2013-05-18 12:49:00,
2013-05-18 08:54:00,58.3,46.9,30.19,SSW,205,8.9,21.4,66,0.00,,,0.00,VWS V14.01,2013-05-18 12:54:00,
2013-05-18 09:00:00,58.5,47.1,30.19,North,359,2.1,29.1,66,0.00,,,0.00,VWS V14.01,2013-05-18 13:00:00,
2013-05-18 09:05:00,58.9,47.6,30.19,SW,219,2.8,29.1,66,0.00,,,0.00,VWS V14.01,2013-05-18 13:05:00,
2013-05-18 09:10:00,59.1,47.8,30.19,SW,224,7.3,29.1,66,0.00,,,0.00,VWS V14.01,2013-05-18 13:10:00,
2013-05-18 09:15:00,59.4,48.1,30.19,North,359,0.0,29.5,66,0.00,,,0.00,VWS V14.01,2013-05-18 13:15:00,
2013-05-18 09:20:00,59.7,48.5,30.19,SSW,201,23.7,29.5,66,0.00,,,0.00,VWS V14.01,2013-05-18 13:20:00,
2013-05-18 09:25:00,59.8,48.4,30.19,WSW,257,9.9,29.5,66,0.00,,,0.00,VWS V14.01,2013-05-18 13:25:00,
2013-05-18 09:30:00,60.1,48.8,30.19,SSW,207,20.9,29.5,66,0.00,,,0.00,VWS V14.01,2013-05-18 13:30:00,
2013-05-18 09:35:00,60.4,49.0,30.19,West,262,8.2,29.5,66,0.01,,,0.01,VWS V14.01,2013-05-18 13:35:00,
2013-05-18 09:40:00,60.5,49.0,30.19,NW,305,5.0,29.5,66,0.01,,,0.01,VWS V14.01,2013-05-18 13:40:00,
2013-05-18 09:45:00,61.0,49.5,30.19,SW,217,12.9,29.5,66,0.01,,,0.01,VWS V14.01,2013-05-18 13:45:00,
2013-05-18 09:50:00,61.3,49.9,30.19,SW,233,11.0,29.5,66,0.01,,,0.01,VWS V14.01,2013-05-18 13:50:00,
2013-05-18 09:55:00,61.7,49.9,30.20,WNW,300,6.9,9.7,65,0.01,,,0.01,VWS V14.01,2013-05-18 13:55:00,
2013-05-18 10:00:00,62.1,50.2,30.20,SSW,198,18.5,19.0,65,0.01,,,0.01,VWS V14.01,2013-05-18 14:00:00,
2013-05-18 10:05:00,62.7,50.7,30.20,SSW,204,10.4,19.0,65,0.01,,,0.01,VWS V14.01,2013-05-18 14:05:00,
2013-05-18 10:10:00,63.1,50.7,30.20,West,277,2.4,25.0,64,0.01,,,0.01,VWS V14.01,2013-05-18 14:10:00,
2013-05-18 10:15:00,63.3,50.8,30.20,SSW,193,10.1,25.0,64,0.01,,,0.01,VWS V14.01,2013-05-18 14:15:00,
2013-05-18 10:20:00,63.6,51.3,30.19,West,260,5.4,27.0,64,0.01,,,0.01,VWS V14.01,2013-05-18 14:20:00,
2013-05-18 10:25:00,64.0,51.4,30.19,WSW,253,11.7,27.0,64,0.01,,,0.01,VWS V14.01,2013-05-18 14:25:00,
2013-05-18 10:30:00,64.4,51.8,30.19,SSW,195,14.7,27.0,64,0.01,,,0.01,VWS V14.01,2013-05-18 14:30:00,
2013-05-18 10:35:00,64.7,52.2,30.19,West,276,2.2,27.0,64,0.01,,,0.01,VWS V14.01,2013-05-18 14:35:00,
2013-05-18 10:40:00,65.0,52.5,30.19,SSW,212,9.9,27.2,64,0.01,,,0.01,VWS V14.01,2013-05-18 14:40:00,
2013-05-18 10:46:00,65.6,53.1,30.19,South,186,22.7,27.2,64,0.01,,,0.01,VWS V14.01,2013-05-18 14:46:00,
2013-05-18 10:51:00,66.0,53.2,30.19,West,266,4.5,27.2,63,0.01,,,0.01,VWS V14.01,2013-05-18 14:51:00,
2013-05-18 10:56:00,66.3,53.4,30.19,WNW,292,11.9,24.4,63,0.00,,,0.01,VWS V14.01,2013-05-18 14:56:00,
2013-05-18 11:01:00,66.4,53.3,30.18,West,271,9.3,24.4,63,0.00,,,0.01,VWS V14.01,2013-05-18 15:01:00,
2013-05-18 11:06:00,66.9,53.7,30.18,West,274,11.4,24.4,62,0.00,,,0.01,VWS V14.01,2013-05-18 15:06:00,
2013-05-18 11:11:00,67.2,53.9,30.18,SSW,201,15.5,24.4,62,0.00,,,0.01,VWS V14.01,2013-05-18 15:11:00,
2013-05-18 11:16:00,67.6,53.5,30.18,ESE,114,2.8,24.4,60,0.00,,,0.01,VWS V14.01,2013-05-18 15:16:00,
2013-05-18 11:21:00,68.0,54.1,30.18,West,260,18.3,24.4,61,0.00,,,0.01,VWS V14.01,2013-05-18 15:21:00,
2013-05-18 11:26:00,68.3,53.8,30.18,WSW,250,18.1,25.7,60,0.00,,,0.01,VWS V14.01,2013-05-18 15:26:00,
2013-05-18 11:31:00,68.4,54.5,30.18,WSW,240,20.1,26.7,61,0.00,,,0.01,VWS V14.01,2013-05-18 15:31:00,
2013-05-18 11:36:00,68.6,54.3,30.18,West,262,14.5,26.7,60,0.00,,,0.01,VWS V14.01,2013-05-18 15:36:00,
2013-05-18 11:41:00,68.9,54.7,30.18,West,267,2.2,26.7,60,0.00,,,0.01,VWS V14.01,2013-05-18 15:41:00,
2013-05-18 11:46:00,69.3,54.8,30.18,SW,217,16.8,26.7,60,0.00,,,0.01,VWS V14.01,2013-05-18 15:46:00,
2013-05-18 11:51:00,69.6,55.4,30.18,SSW,198,0.0,26.7,61,0.00,,,0.01,VWS V14.01,2013-05-18 15:51:00,
2013-05-18 11:56:00,69.9,55.6,30.18,WNW,288,8.2,19.2,60,0.00,,,0.01,VWS V14.01,2013-05-18 15:56:00,
2013-05-18 12:01:00,70.2,56.0,30.17,West,263,12.7,22.6,61,0.00,,,0.01,VWS V14.01,2013-05-18 16:01:00,
2013-05-18 12:06:00,70.6,56.3,30.17,WNW,294,6.3,28.1,61,0.00,,,0.01,VWS V14.01,2013-05-18 16:06:00,
2013-05-18 12:11:00,70.9,55.3,30.18,SW,226,16.0,28.1,58,0.00,,,0.01,VWS V14.01,2013-05-18 16:11:00,
2013-05-18 12:16:00,71.2,56.2,30.17,SSW,197,15.3,28.1,59,0.00,,,0.01,VWS V14.01,2013-05-18 16:16:00,
2013-05-18 12:21:00,71.5,55.9,30.17,SSW,197,20.1,28.1,58,0.00,,,0.01,VWS V14.01,2013-05-18 16:21:00,
2013-05-18 12:26:00,71.8,56.1,30.17,West,280,10.6,28.1,58,0.00,,,0.01,VWS V14.01,2013-05-18 16:26:00,
2013-05-18 12:31:00,72.0,55.3,30.16,West,266,6.9,28.1,56,0.00,,,0.01,VWS V14.01,2013-05-18 16:31:00,
2013-05-18 12:36:00,72.1,56.0,30.16,SSW,195,9.7,28.1,57,0.00,,,0.01,VWS V14.01,2013-05-18 16:36:00,
2013-05-18 12:41:00,72.2,55.5,30.16,WNW,290,3.2,28.1,56,0.00,,,0.01,VWS V14.01,2013-05-18 16:41:00,
2013-05-18 12:47:00,72.4,56.5,30.16,South,180,3.7,28.1,57,0.00,,,0.01,VWS V14.01,2013-05-18 16:47:00,
2013-05-18 12:52:00,72.6,56.7,30.16,WNW,283,11.7,28.1,57,0.00,,,0.01,VWS V14.01,2013-05-18 16:52:00,
2013-05-18 12:57:00,72.7,56.8,30.16,North,359,10.3,25.5,57,0.00,,,0.01,VWS V14.01,2013-05-18 16:57:00,
2013-05-18 13:02:00,72.8,56.4,30.16,South,174,23.1,25.5,56,0.00,,,0.01,VWS V14.01,2013-05-18 17:02:00,
2013-05-18 13:07:00,72.8,57.1,30.16,WSW,248,7.5,25.5,58,0.00,,,0.01,VWS V14.01,2013-05-18 17:07:00,
2013-05-18 13:12:00,73.1,57.0,30.16,South,184,25.0,26.7,57,0.00,,,0.01,VWS V14.01,2013-05-18 17:12:00,
2013-05-18 13:17:00,73.4,57.2,30.16,West,273,3.9,26.7,57,0.00,,,0.01,VWS V14.01,2013-05-18 17:17:00,
2013-05-18 13:22:00,73.4,57.1,30.16,SSE,167,21.8,26.7,57,0.00,,,0.01,VWS V14.01,2013-05-18 17:22:00,
2013-05-18 13:27:00,73.4,57.1,30.16,SW,228,13.0,26.7,57,0.00,,,0.01,VWS V14.01,2013-05-18 17:27:00,
2013-05-18 13:32:00,73.3,57.4,30.16,WNW,295,11.6,31.7,58,0.00,,,0.01,VWS V14.01,2013-05-18 17:32:00,
2013-05-18 13:37:00,73.1,57.0,30.16,SSE,166,10.4,31.7,57,0.00,,,0.01,VWS V14.01,2013-05-18 17:37:00,
2013-05-18 13:42:00,73.4,57.2,30.16,South,186,11.6,31.7,57,0.00,,,0.01,VWS V14.01,2013-05-18 17:42:00,
2013-05-18 13:47:00,73.6,57.3,30.16,WSW,238,21.3,32.8,57,0.00,,,0.01,VWS V14.01,2013-05-18 17:47:00,
2013-05-18 13:52:00,73.7,57.3,30.16,SW,222,20.7,32.8,56,0.00,,,0.01,VWS V14.01,2013-05-18 17:52:00,
2013-05-18 13:57:00,73.9,57.6,30.16,SW,222,14.4,28.5,57,0.00,,,0.01,VWS V14.01,2013-05-18 17:57:00,
2013-05-18 14:02:00,73.7,57.8,30.15,South,170,7.6,30.9,58,0.00,,,0.01,VWS V14.01,2013-05-18 18:02:00,
2013-05-18 14:07:00,73.7,57.3,30.15,South,188,17.0,30.9,57,0.00,,,0.01,VWS V14.01,2013-05-18 18:07:00,
2013-05-18 14:12:00,73.3,57.0,30.15,West,263,18.5,30.9,57,0.00,,,0.01,VWS V14.01,2013-05-18 18:12:00,
2013-05-18 14:17:00,72.6,56.8,30.15,WSW,255,0.0,30.9,58,0.00,,,0.01,VWS V14.01,2013-05-18 18:17:00,
2013-05-18 14:22:00,72.0,56.7,30.15,West,280,9.3,30.9,59,0.00,,,0.01,VWS V14.01,2013-05-18 18:22:00,
2013-05-18 14:27:00,71.8,56.8,30.15,WSW,255,11.4,30.9,59,0.00,,,0.01,VWS V14.01,2013-05-18 18:27:00,
2013-05-18 14:32:00,71.8,57.0,30.15,SSW,212,20.5,30.9,60,0.00,,,0.01,VWS V14.01,2013-05-18 18:32:00,
2013-05-18 14:37:00,71.5,56.8,30.15,West,266,11.6,30.9,60,0.00,,,0.01,VWS V14.01,2013-05-18 18:37:00,
2013-05-18 14:42:00,71.2,56.8,30.15,West,281,9.7,30.9,60,0.00,,,0.01,VWS V14.01,2013-05-18 18:42:00,
2013-05-18 14:48:00,70.8,56.4,30.14,WNW,288,18.1,30.9,60,0.00,,,0.01,VWS V14.01,2013-05-18 18:48:00,
2013-05-18 14:53:00,70.5,56.3,30.14,SW,226,9.9,30.9,61,0.00,,,0.01,VWS V14.01,2013-05-18 18:53:00,
2013-05-18 14:58:00,70.3,57.1,30.14,SW,221,17.3,28.7,63,0.00,,,0.01,VWS V14.01,2013-05-18 18:58:00,
2013-05-18 15:03:00,70.1,57.2,30.14,WSW,246,9.1,28.7,64,0.00,,,0.01,VWS V14.01,2013-05-18 19:03:00,
2013-05-18 15:08:00,69.8,57.4,30.13,WSW,245,9.7,28.7,65,0.00,,,0.01,VWS V14.01,2013-05-18 19:08:00,
2013-05-18 15:13:00,69.6,56.9,30.14,WNW,284,6.7,28.9,64,0.00,,,0.01,VWS V14.01,2013-05-18 19:13:00,
2013-05-18 15:18:00,69.7,56.6,30.14,WNW,288,0.7,28.9,63,0.00,,,0.01,VWS V14.01,2013-05-18 19:18:00,
2013-05-18 15:23:00,69.5,56.5,30.14,SSW,201,10.8,29.5,63,0.00,,,0.01,VWS V14.01,2013-05-18 19:23:00,
2013-05-18 15:28:00,69.5,56.5,30.14,SSW,198,12.3,29.5,63,0.00,,,0.01,VWS V14.01,2013-05-18 19:28:00,
2013-05-18 15:33:00,69.5,56.6,30.14,SSW,202,19.0,29.5,64,0.00,,,0.01,VWS V14.01,2013-05-18 19:33:00,
2013-05-18 15:38:00,69.4,56.4,30.13,WNW,294,4.3,29.5,63,0.00,,,0.01,VWS V14.01,2013-05-18 19:38:00,
2013-05-18 15:43:00,69.4,56.5,30.13,SSW,200,7.6,29.5,64,0.00,,,0.01,VWS V14.01,2013-05-18 19:43:00,
2013-05-18 15:48:00,69.3,56.4,30.13,SW,217,11.2,29.5,64,0.00,,,0.01,VWS V14.01,2013-05-18 19:48:00,
2013-05-18 15:53:00,69.3,56.3,30.14,WNW,288,4.5,29.5,63,0.00,,,0.01,VWS V14.01,2013-05-18 19:53:00,
2013-05-18 15:58:00,69.5,57.5,30.13,SSW,195,13.6,29.5,66,0.00,,,0.01,VWS V14.01,2013-05-18 19:58:00,
2013-05-18 16:03:00,69.1,57.8,30.14,WNW,283,4.7,29.5,67,0.00,,,0.01,VWS V14.01,2013-05-18 20:03:00,
2013-05-18 16:08:00,68.7,57.6,30.13,NW,325,3.2,29.5,68,0.00,,,0.01,VWS V14.01,2013-05-18 20:08:00,
2013-05-18 16:13:00,68.8,57.3,30.13,WNW,288,7.8,29.5,67,0.00,,,0.01,VWS V14.01,2013-05-18 20:13:00,
2013-05-18 16:18:00,68.7,57.2,30.13,SSW,210,16.8,29.5,67,0.00,,,0.01,VWS V14.01,2013-05-18 20:18:00,
2013-05-18 16:23:00,68.8,56.9,30.13,West,259,11.2,29.5,66,0.00,,,0.01,VWS V14.01,2013-05-18 20:23:00,
2013-05-18 16:28:00,68.7,56.9,30.13,WSW,249,11.2,29.5,66,0.00,,,0.01,VWS V14.01,2013-05-18 20:28:00,
2013-05-18 16:33:00,68.9,57.1,30.14,WNW,283,8.2,29.5,66,0.00,,,0.01,VWS V14.01,2013-05-18 20:33:00,
2013-05-18 16:38:00,68.7,57.0,30.13,West,266,8.6,29.5,66,0.00,,,0.01,VWS V14.01,2013-05-18 20:38:00,
2013-05-18 16:43:00,68.5,56.9,30.13,West,259,5.8,29.5,66,0.00,,,0.01,VWS V14.01,2013-05-18 20:43:00,
2013-05-18 16:49:00,68.5,57.0,30.13,North,359,4.7,29.5,67,0.00,,,0.01,VWS V14.01,2013-05-18 20:49:00,
2013-05-18 16:54:00,68.5,57.1,30.13,West,273,10.1,29.5,67,0.00,,,0.01,VWS V14.01,2013-05-18 20:54:00,
2013-05-18 16:59:00,68.2,56.9,30.13,West,278,13.6,17.9,67,0.00,,,0.01,VWS V14.01,2013-05-18 20:59:00,
2013-05-18 17:04:00,67.9,56.9,30.13,WNW,301,7.5,24.8,68,0.00,,,0.01,VWS V14.01,2013-05-18 21:04:00,
2013-05-18 17:09:00,67.6,56.8,30.13,SSW,193,11.9,27.2,68,0.00,,,0.01,VWS V14.01,2013-05-18 21:09:00,
2013-05-18 17:14:00,67.5,56.9,30.13,West,278,8.4,28.0,69,0.00,,,0.01,VWS V14.01,2013-05-18 21:14:00,
2013-05-18 17:19:00,67.4,57.2,30.13,SW,236,5.0,29.5,70,0.00,,,0.01,VWS V14.01,2013-05-18 21:19:00,
2013-05-18 17:24:00,67.0,57.0,30.14,SSW,211,19.8,29.5,70,0.00,,,0.01,VWS V14.01,2013-05-18 21:24:00,
2013-05-18 17:29:00,66.5,56.9,30.14,NW,304,0.9,29.5,71,0.00,,,0.01,VWS V14.01,2013-05-18 21:29:00,
2013-05-18 17:34:00,66.3,56.8,30.14,SW,233,15.1,29.5,71,0.00,,,0.01,VWS V14.01,2013-05-18 21:34:00,
2013-05-18 17:39:00,66.2,57.0,30.14,WNW,292,7.6,29.5,72,0.00,,,0.01,VWS V14.01,2013-05-18 21:39:00,
2013-05-18 17:44:00,66.0,57.0,30.14,WSW,242,12.5,29.5,73,0.00,,,0.01,VWS V14.01,2013-05-18 21:44:00,
2013-05-18 17:49:00,65.8,56.9,30.14,NW,318,0.0,29.5,73,0.00,,,0.01,VWS V14.01,2013-05-18 21:49:00,
2013-05-18 17:54:00,65.4,56.8,30.13,WNW,292,8.8,8.8,74,0.00,,,0.01,VWS V14.01,2013-05-18 21:54:00,
2013-05-18 17:59:00,65.3,56.8,30.13,NW,305,0.7,29.5,74,0.00,,,0.01,VWS V14.01,2013-05-18 21:59:00,
2013-05-18 18:04:00,65.1,56.8,30.14,WNW,285,0.0,29.5,75,0.00,,,0.01,VWS V14.01,2013-05-18 22:04:00,
2013-05-18 18:09:00,64.9,56.7,30.14,West,278,6.0,29.5,75,0.00,,,0.01,VWS V14.01,2013-05-18 22:09:00,
2013-05-18 18:14:00,64.9,56.8,30.14,North,359,7.5,29.5,75,0.00,,,0.01,VWS V14.01,2013-05-18 22:14:00,
2013-05-18 18:19:00,64.7,56.7,30.14,West,270,8.4,29.5,75,0.00,,,0.01,VWS V14.01,2013-05-18 22:19:00,
2013-05-18 18:24:00,64.3,56.5,30.14,West,278,6.2,29.5,76,0.00,,,0.01,VWS V14.01,2013-05-18 22:24:00,
2013-05-18 18:29:00,64.3,56.6,30.14,WSW,240,10.4,29.5,76,0.00,,,0.01,VWS V14.01,2013-05-18 22:29:00,
2013-05-18 18:34:00,64.1,56.6,30.14,West,262,0.0,29.5,77,0.00,,,0.01,VWS V14.01,2013-05-18 22:34:00,
2013-05-18 18:39:00,64.0,56.6,30.14,WNW,284,3.0,29.5,77,0.00,,,0.01,VWS V14.01,2013-05-18 22:39:00,
2013-05-18 18:44:00,64.1,56.8,30.14,WNW,302,7.6,29.5,77,0.00,,,0.01,VWS V14.01,2013-05-18 22:44:00,
2013-05-18 18:49:00,64.0,56.8,30.14,NW,316,0.0,29.5,77,0.00,,,0.01,VWS V14.01,2013-05-18 22:49:00,
2013-05-18 18:55:00,63.9,56.7,30.14,WNW,287,8.0,10.8,78,0.00,,,0.01,VWS V14.01,2013-05-18 22:55:00,
2013-05-18 19:00:00,63.8,56.8,30.14,WNW,290,10.6,28.1,78,0.00,,,0.01,VWS V14.01,2013-05-18 23:00:00,
2013-05-18 19:05:00,63.6,56.8,30.14,WNW,290,4.8,28.1,78,0.00,,,0.01,VWS V14.01,2013-05-18 23:05:00,
2013-05-18 19:10:00,63.4,56.8,30.14,WSW,239,0.0,28.1,79,0.00,,,0.01,VWS V14.01,2013-05-18 23:10:00,
2013-05-18 19:15:00,63.2,56.7,30.14,North,359,3.0,28.3,79,0.00,,,0.01,VWS V14.01,2013-05-18 23:15:00,
2013-05-18 19:20:00,63.1,56.6,30.14,SSW,212,11.2,28.3,79,0.00,,,0.01,VWS V14.01,2013-05-18 23:20:00,
2013-05-18 19:25:00,63.2,56.8,30.15,West,267,2.6,29.3,80,0.00,,,0.01,VWS V14.01,2013-05-18 23:25:00,
2013-05-18 19:30:00,63.0,56.7,30.15,North,359,6.0,29.3,80,0.00,,,0.01,VWS V14.01,2013-05-18 23:30:00,
2013-05-18 19:35:00,62.6,56.6,30.15,North,359,0.0,29.3,81,0.00,,,0.01,VWS V14.01,2013-05-18 23:35:00,
2013-05-18 19:40:00,62.4,56.5,30.15,SSW,204,0.0,29.3,81,0.00,,,0.01,VWS V14.01,2013-05-18 23:40:00,
2013-05-18 19:45:00,62.1,56.3,30.15,SSW,212,0.0,29.3,81,0.00,,,0.01,VWS V14.01,2013-05-18 23:45:00,
2013-05-18 19:50:00,61.8,56.3,30.14,NW,311,0.0,29.3,82,0.00,,,0.01,VWS V14.01,2013-05-18 23:50:00,
2013-05-18 19:55:00,61.7,56.4,30.14,WNW,298,0.0,11.7,83,0.00,,,0.01,VWS V14.01,2013-05-18 23:55:00,
2013-05-18 20:00:00,61.6,56.3,30.15,North,359,0.0,28.3,83,0.00,,,0.01,VWS V14.01,2013-05-19 00:00:00,
2013-05-18 20:05:00,61.5,56.3,30.15,North,359,0.0,28.3,83,0.00,,,0.01,VWS V14.01,2013-05-19 00:05:00,
2013-05-18 20:10:00,61.4,56.3,30.15,SW,222,0.0,28.3,83,0.00,,,0.01,VWS V14.01,2013-05-19 00:10:00,
2013-05-18 20:15:00,61.3,56.2,30.15,WNW,297,0.0,28.3,83,0.00,,,0.01,VWS V14.01,2013-05-19 00:15:00,
2013-05-18 20:20:00,61.1,56.1,30.15,North,359,0.0,28.5,84,0.00,,,0.01,VWS V14.01,2013-05-19 00:20:00,
2013-05-18 20:25:00,61.1,56.3,30.14,SW,214,0.0,28.5,84,0.00,,,0.01,VWS V14.01,2013-05-19 00:25:00,
2013-05-18 20:30:00,61.0,56.2,30.15,NW,304,0.0,28.5,84,0.00,,,0.01,VWS V14.01,2013-05-19 00:30:00,
2013-05-18 20:35:00,60.9,56.2,30.15,WNW,285,6.9,28.5,84,0.00,,,0.01,VWS V14.01,2013-05-19 00:35:00,
2013-05-18 20:40:00,60.7,56.1,30.15,North,359,0.7,28.5,85,0.00,,,0.01,VWS V14.01,2013-05-19 00:40:00,
2013-05-18 20:45:00,60.5,56.1,30.15,WSW,238,0.0,29.1,85,0.00,,,0.01,VWS V14.01,2013-05-19 00:45:00,
2013-05-18 20:50:00,60.4,56.0,30.15,North,359,0.0,29.1,86,0.00,,,0.01,VWS V14.01,2013-05-19 00:50:00,
2013-05-18 20:56:00,60.1,55.9,30.15,West,266,0.0,15.1,86,0.00,,,0.01,VWS V14.01,2013-05-19 00:56:00,
2013-05-18 21:01:00,59.9,55.8,30.15,North,359,0.0,21.1,86,0.00,,,0.01,VWS V14.01,2013-05-19 01:01:00,
2013-05-18 21:06:00,59.8,55.8,30.16,North,359,0.0,21.1,86,0.00,,,0.01,VWS V14.01,2013-05-19 01:06:00,
2013-05-18 21:11:00,59.8,55.8,30.16,NW,318,0.0,21.1,87,0.00,,,0.01,VWS V14.01,2013-05-19 01:11:00,
2013-05-18 21:16:00,59.8,55.8,30.16,NW,318,0.0,21.1,87,0.00,,,0.01,VWS V14.01,2013-05-19 01:16:00,
2013-05-18 21:21:00,59.7,55.8,30.16,NNE,32,0.0,28.9,87,0.00,,,0.01,VWS V14.01,2013-05-19 01:21:00,
2013-05-18 21:26:00,59.6,55.8,30.16,North,359,0.0,28.9,87,0.00,,,0.01,VWS V14.01,2013-05-19 01:26:00,
2013-05-18 21:31:00,59.5,55.7,30.16,North,359,0.0,28.9,87,0.00,,,0.01,VWS V14.01,2013-05-19 01:31:00,
2013-05-18 21:36:00,59.4,55.8,30.16,North,359,0.0,28.9,88,0.00,,,0.01,VWS V14.01,2013-05-19 01:36:00,
2013-05-18 21:41:00,59.4,55.8,30.17,North,359,0.0,28.9,88,0.00,,,0.01,VWS V14.01,2013-05-19 01:41:00,
2013-05-18 21:46:00,59.2,55.7,30.17,WNW,284,0.0,28.9,88,0.00,,,0.01,VWS V14.01,2013-05-19 01:46:00,
2013-05-18 21:51:00,59.2,55.8,30.17,North,359,0.0,28.9,88,0.00,,,0.01,VWS V14.01,2013-05-19 01:51:00,
2013-05-18 21:56:00,59.1,55.7,30.17,North,359,0.0,0.0,88,0.00,,,0.01,VWS V14.01,2013-05-19 01:56:00,
2013-05-18 22:01:00,59.0,55.7,30.17,North,359,0.0,10.6,89,0.00,,,0.01,VWS V14.01,2013-05-19 02:01:00,
2013-05-18 22:06:00,58.9,55.7,30.17,North,357,0.0,26.5,89,0.00,,,0.01,VWS V14.01,2013-05-19 02:06:00,
2013-05-18 22:11:00,58.8,55.6,30.17,NW,321,0.0,26.5,89,0.00,,,0.01,VWS V14.01,2013-05-19 02:11:00,
2013-05-18 22:16:00,58.6,55.7,30.17,North,359,0.0,26.5,90,0.00,,,0.01,VWS V14.01,2013-05-19 02:16:00,
2013-05-18 22:21:00,58.5,55.5,30.17,NW,307,0.0,26.5,90,0.00,,,0.01,VWS V14.01,2013-05-19 02:21:00,
2013-05-18 22:26:00,58.5,55.4,30.17,North,359,0.0,28.5,90,0.00,,,0.01,VWS V14.01,2013-05-19 02:26:00,
2013-05-18 22:31:00,58.6,55.7,30.17,North,359,0.0,28.5,90,0.00,,,0.01,VWS V14.01,2013-05-19 02:31:00,
2013-05-18 22:36:00,58.3,55.4,30.17,North,359,0.0,28.5,90,0.00,,,0.01,VWS V14.01,2013-05-19 02:36:00,
2013-05-18 22:41:00,58.3,55.4,30.17,WNW,300,0.0,28.5,90,0.00,,,0.01,VWS V14.01,2013-05-19 02:41:00,
2013-05-18 22:46:00,58.2,55.3,30.16,SW,228,0.0,28.5,90,0.00,,,0.01,VWS V14.01,2013-05-19 02:46:00,
2013-05-18 22:51:00,58.0,55.2,30.16,NW,309,0.0,28.5,90,0.00,,,0.01,VWS V14.01,2013-05-19 02:51:00,
2013-05-18 22:56:00,57.8,55.2,30.16,WNW,301,0.0,21.1,91,0.00,,,0.01,VWS V14.01,2013-05-19 02:56:00,
2013-05-18 23:02:00,57.6,55.2,30.16,WNW,301,0.0,28.5,92,0.00,,,0.01,VWS V14.01,2013-05-19 03:02:00,
2013-05-18 23:07:00,57.6,55.3,30.16,WNW,301,0.0,28.5,92,0.00,,,0.01,VWS V14.01,2013-05-19 03:07:00,
2013-05-18 23:12:00,57.6,55.2,30.16,North,359,0.0,28.5,92,0.00,,,0.01,VWS V14.01,2013-05-19 03:12:00,
2013-05-18 23:17:00,57.6,55.3,30.16,SW,232,0.0,28.5,92,0.00,,,0.01,VWS V14.01,2013-05-19 03:17:00,
2013-05-18 23:22:00,57.5,55.2,30.16,SW,224,0.0,29.5,92,0.00,,,0.01,VWS V14.01,2013-05-19 03:22:00,
2013-05-18 23:27:00,57.6,55.4,30.16,SW,224,0.0,29.5,92,0.00,,,0.01,VWS V14.01,2013-05-19 03:27:00,
2013-05-18 23:32:00,57.5,55.4,30.16,SSW,193,0.0,29.5,93,0.00,,,0.01,VWS V14.01,2013-05-19 03:32:00,
2013-05-18 23:37:00,57.5,55.3,30.16,SSW,193,0.0,29.5,92,0.00,,,0.01,VWS V14.01,2013-05-19 03:37:00,
2013-05-18 23:42:00,57.5,55.4,30.16,North,359,0.0,29.5,93,0.00,,,0.01,VWS V14.01,2013-05-19 03:42:00,
2013-05-18 23:47:00,57.4,55.3,30.16,WSW,240,0.0,29.5,93,0.00,,,0.01,VWS V14.01,2013-05-19 03:47:00,
2013-05-18 23:52:00,57.4,55.3,30.16,WSW,245,0.0,29.5,93,0.00,,,0.01,VWS V14.01,2013-05-19 03:52:00,
2013-05-18 23:57:00,57.4,55.4,30.16,WNW,295,0.0,9.5,93,0.00,,,0.01,VWS V14.01,2013-05-19 03:57:00,